< < Back
Terminal Aerodrome Forecast


Current Version              Previous Versions:   1  2  3  4  5  6  7  8  9  

Terminal Aerodrome Forecast

931
FTUS44 KBMX 211100
TAFTCL
TAF
KTCL 211138Z 2112/2212 02004KT P6SM SCT012 OVC030
      TEMPO 2112/2115 OVC012
     FM211600 08004KT P6SM OVC025
     FM220400 10004KT P6SM OVC015
     FM221000 12004KT 5SM BR OVC008=



Latest METAR

016
SAUS70 KWBC 212100 RRB
MTRTCL
METAR KTCL 212053Z 08003KT 6SM HZ OVC013 11/07 A3008 RMK AO2 SLP184
T01110072 56021


USA.gov is the U.S. government's official web portal to all federal, state and local government web resources and services.